Regional Weather Roundup
Issued by NWS

Home | Current Version | Previous Version | Text Only | Print | Product List | Glossary On
Versions: 1 2 3 4 5 6 7 8 9 10 11 12 13 14 15 16 17 18 19 20 21 22 23 24 25 26 27
000
ASUS45 KSLC 171610
RWRUT

UTAH REGIONAL WEATHER ROUNDUP
NATIONAL WEATHER SERVICE SALT LAKE CITY UT
900 AM MST SUN DEC 17 2017

UTZ001>011-023>025-171700-

NORTHERN UTAH

CITY           SKY/WX    TMP DP  RH WIND       PRES   REMARKS
BRIGHAM CITY     N/A     17  13  87 E3        30.22S
HILL AFB       SUNNY     23  22  96 S5        30.19R WCI  16
LOGAN          CLOUDY    24  20  84 S3        30.22S
OGDEN          CLEAR     22  19  89 SE3       30.20R
SALT LAKE CITY MOSUNNY   27  24  89 N5        30.21R WCI  22
TOOELE VALLEY  CLOUDY    28  27  93 CALM      30.23R
WENDOVER       PTCLDY    23  16  74 NE5       30.23S WCI  17
HEBER CITY     CLOUDY    28  19  69 NE8       30.13S WCI  20
WEST JORDAN    CLOUDY    25  23  93 N3        30.21R

$$

UTZ011>015-024>027-171700-

CENTRAL/NORTHEAST UTAH

CITY           SKY/WX    TMP DP  RH WIND       PRES   REMARKS
PROVO AIRPORT  CLOUDY    30  25  80 NW12      30.21R WCI  21
MOAB/CANYONLAN MOSUNNY   21   6  52 CALM      30.07R
DELTA          CLOUDY    27  23  86 N5        30.20R WCI  21
PRICE          SUNNY     31  18  58 NW10      30.04R WCI  22
RICHFIELD      CLOUDY    30  25  80 CALM      30.17R
ROOSEVELT      CLOUDY    30  18  59 CALM      30.10R
VERNAL         CLOUDY    31  18  58 CALM      30.08R

$$

UTZ013>016-019>022-027-171700-

SOUTHERN UTAH

CITY           SKY/WX    TMP DP  RH WIND       PRES   REMARKS
BRYCE CANYON   CLOUDY    22  19  89 NW8       30.07R WCI  12
CEDAR CITY     CLOUDY    27  22  81 N12       30.12R WCI  17
MILFORD        CLOUDY    27  22  81 N13       30.17R WCI  16
HANKSVILLE     MOSUNNY   21   7  53 CALM      30.11S
KANAB          SUNNY     32  18  55 NE3       30.09R
BLANDING         N/A     36   6  28 CALM      30.09R

$$

REGIONAL REPORTS     COLORADO/ARIZONA

CITY           SKY/WX    TMP DP  RH WIND       PRES   REMARKS
CRAIG, CO      CLOUDY    23  16  74 N5        30.07S WCI  17
GRAND JUNCTION CLOUDY    24   8  50 SE7       30.08R WCI  16
RIFLE, CO      CLOUDY    17   8  67 SE3       30.09R
MONTROSE, CO   CLOUDY    22   9  57 S5        30.09R WCI  16
CORTEZ, CO     CLOUDY    28   6  39 NE5       30.04R WCI  23
COLORADO CITY    N/A     27  18  69 CALM      30.08R
PAGE, AZ       SUNNY     31  14  49 CALM      30.06R
GRAND CANYON   SUNNY     23   5  46 CALM      30.01R
KINGMAN, AZ    SUNNY     37  21  52 E10       30.01R WCI  30
FLAGSTAFF, AZ  PTSUNNY   35   8  32 E9        29.99R WCI  28

$$

REGIONAL REPORTS    NEVADA/IDAHO/WYOMING

CITY           SKY/WX    TMP DP  RH WIND       PRES   REMARKS
LAS VEGAS, NV  SUNNY     48  18  30 N22G32    30.08R
ELY, NY        PTCLDY     7   3  84 S10       30.17S WCI  -8
ELKO, NV       PTCLDY    13   8  81 CALM      30.23R
POCATELLO, ID  CLOUDY    23  19  85 SW21      30.22R WCI   8
BURLEY, ID     CLEAR     20  12  71 SW3       30.21S
FORT BRIDGER,    N/A     21  18  90 W17G23    30.11R WCI   6
EVANSTON, WY   CLOUDY    17  15  92 SW6       30.10R WCI   9
ROCK SPRINGS,  CLOUDY    19  13  77 W21G28    30.04R WCI   3

$$




USA.gov is the U.S. government's official web portal to all federal, state and local government web resources and services.